User: anonymous   Login
Location: *
(40.4270°N, 9.4940°E)
Time: 12:32:41
(UTC+02:00)
Language:

Okean 2 - Orbit

View from above orbital plane
View from above orbital plane
View from above satellite
View from above satellite

Ground track
Ground track

The orbit data is extracted from the following two-line orbital elements,

1 20510U 90018A   15117.17175200  .00002271  00000-0  19188-3 0  9996
2 20510 082.5181 201.7435 0014365 101.6511 280.4543 14.97583588364345
Epoch (UTC): 27 April 2015 04:07:19
Eccentricity: 0.0014365
inclination: 82.5181°
perigee height: 564 km
apogee height: 584 km
right ascension of ascending node: 201.7435°
argument of perigee: 101.6511°
revolutions per day: 14.97583588
mean anomaly at epoch: 280.4543°
orbit number at epoch: 36434

The dashed part of the orbit path shows where the satellite is in the earth's shadow,  

DLR